Preview of NWS' New Version of Forecast
This preview is not operational and should not be used for support decisions.

Regional Weather Roundup (RWR)

Issued by National Weather Service (NWS)

                            
000
ASUS44 KMEG 211510
RWRTN 
TENNESSEE HOURLY STATE WEATHER ROUNDUP
NATIONAL WEATHER SERVICE MEMPHIS TN
900 AM CST THU FEB 21 2019

TNZ002-004-019-021-049-052-054-088>092-211600-
WEST TENNESSEE
  
CITY           SKY/WX    TMP DP  RH WIND       PRES   REMARKS
MEMPHIS INTL   FAIR      44  40  85 NE10      30.17S                  
NWS MEMPHIS      N/A     40 N/A N/A MISG        N/A                   
JACKSON        CLOUDY    39  38  96 NE8       30.20F FOG     WCI  33  
DYERSBURG      FAIR      39  39 100 NE6       30.22S WCI  35          
SOMERVILLE     FOG       39  39 100 VRB3      30.17S VSB 0            
COVINGTON      SUNNY     41  37  87 E12G17    30.20F                  
UNION CITY     SUNNY     41  39  93 NE6       30.21F                  
PARIS          MOSUNNY   43  43 100 NE8       30.21F                  
HUNTINGDON     PTSUNNY   43  43 100 E8        30.21S                  
SELMER         CLOUDY    45  43  93 NE9       30.16F                  
$$

TNZ008-025-027-028-033-062-065-066-211600-
NORTH MIDDLE TENNESSEE
  
CITY           SKY/WX    TMP DP  RH WIND       PRES   REMARKS
NASHVILLE      FAIR      48  39  71 N9        30.22R                  
DICKSON        CLOUDY    45  39  81 VRB7      30.20S                  
CLARKSVILLE    PTSUNNY   46  38  73 NE6       30.23S                  
LEBANON        SUNNY     46  41  81 N8        30.20R                  
SMYRNA         FAIR      48  41  76 N10       30.22R                  
MURFREESBORO   CLOUDY    45  41  87 N10       30.18S                  
COOKEVILLE     CLOUDY    46  41  81 NE8G14    30.17S                  
LIVINGSTON     CLOUDY   N/A N/A N/A MISG      30.17                   
GALLATIN       SUNNY     46  43  87 N7        30.24R                  
CROSSVILLE     CLOUDY    42  40  92 NE9       30.17R                  
ROCKWOOD       CLOUDY    45  43  93 NE5       30.15R                  
$$

TNZ061-075-076-078-094-096-097-211600-
SOUTH MIDDLE TENNESSEE
  
CITY           SKY/WX    TMP DP  RH WIND       PRES   REMARKS
LAWRENCEBURG   MOSUNNY   45  39  81 NE9G18    30.15S                  
LEWISBURG      CLOUDY    46  41  81 NE7G13    30.19R                  
FAYETTEVILLE   CLOUDY    45  45 100 NE9       30.16R                  
TULLAHOMA      CLOUDY    45  41  87 NE7       30.16R                  
WINCHESTER     CLOUDY    46  43  87 NE8       30.16R                  
MCMINNVILLE    CLOUDY    45  41  87 NE12      30.17S                  
COLUMBIA       MOSUNNY   46  45  93 NE9G16    30.17S                  
SHELBYVILLE    CLOUDY    45  41  87 NE10      30.18R                  
$$

TNZ017-018-042-046-047-211600-
NORTHEAST TENNESSEE
  
CITY           SKY/WX    TMP DP  RH WIND       PRES   REMARKS
TRI CITIES     CLOUDY    49  49 100 CALM      30.15R FOG              
ELIZABETHTON   CLOUDY    52  52 100 NW6       30.14R FOG              
GREENEVILLE    FOG       50  50 100 W5        30.15R VSB 1/4          
$$

TNZ012-013-036-069-073-074-211600-
CENTRAL EAST TENNESSEE
  
CITY           SKY/WX    TMP DP  RH WIND       PRES   REMARKS
KNOXVILLE      LGT RAIN  50  49  96 VRB3      30.15S FOG              
OAK RIDGE      CLOUDY    49  48  97 E3        30.18                   
DOWNTOWN KNOXV CLOUDY    52  52 100 CALM      30.17R FOG              
GATLINBURG     CLOUDY    50  50 100 CALM      30.16R FOG              
MORRISTOWN     FOG       50  50 100 CALM      30.14R VSB 1/4          
JACKSBORO      CLOUDY    46  41  81 N5        30.21R                  
$$

TNZ083-085-099-211600-
SOUTHEAST TENNESSEE
  
CITY           SKY/WX    TMP DP  RH WIND       PRES   REMARKS
CHATTANOOGA    CLOUDY    51  48  89 CALM      30.14S FOG              
DAYTON         PTSUNNY   50  50 100 CALM      30.14S                  
$$

SKY/WX REPORTED AS FAIR MEANS FEW OR NO CLOUDS BELOW
12 THOUSAND FEET.